OKEAN-0
1 25860U 99039A 11222.95122108 .00000176 00000-0 34325-4 0 04010
2 25860 097.8885 187.9047 0001241 103.6999 256.4347 14.73813905648728
NOAA-16
1 26536U 00055A 11222.96941496 -.00000149 00000-0 -55060-4 0 03965
2 26536 099.1376 254.6162 0009877 236.0894 123.9317 14.12635570561099
NOAA-17
1 27453U 02032A 11222.97159805 .00000120 00000-0 69873-4 0 03837
2 27453 098.3764 260.1571 0011566 354.1149 005.9889 14.24300033474451
NOAA-18
1 28654U 05018A 11222.89509857 -.00000027 00000-0 99954-5 0 08639
2 28654 098.9982 174.1877 0013956 314.9329 045.0691 14.11500418320647
NOAA-19
1 33591U 09005A 11222.90446223 .00000138 00000-0 10054-3 0 00539
2 33591 098.8270 162.1445 0013835 177.8435 182.2840 14.11190645129105
HUBBLE
1 20580U 90037B 11223.22403858 .00000892 00000-0 54723-4 0 8156
2 20580 028.4708 016.9065 0003409 350.4558 009.6032 15.01451603967939
ISS
1 25544U 98067A 11223.87180348 .00004287 00000-0 57475-4 0 8754
2 25544 051.6401 240.4741 0012889 067.5492 352.8854 15.60335249729609
CO-58
1 28895U 05043F 11222.68209038 .00000209 00000-0 52543-4 0 09475
2 28895 097.9586 096.9444 0019038 051.7574 308.5361 14.60145267308197
FALCON
1 30776U 07006E 11223.84411780 .00001556 00000-0 11090-3 0 1474
2 30776 035.4340 008.5108 0001542 248.6273 111.4279 15.04819054243438
MAST
1 31126U 07012K 11223.64835284 .00000278 00000-0 72911-4 0 2312
2 31126 097.8937 247.7363 0094570 358.8199 001.2759 14.53784261229141
CAPE1
1 31130U 07012P 11223.61727288 .00000274 00000-0 73349-4 0 2455
2 31130 097.8968 244.3905 0102546 009.8542 350.4638 14.52437984228682
COMPASS
1 32787U 08021E 11223.69189100 .00000829 00000-0 10959-3 0 628
2 32787 097.8453 286.4667 0015587 359.7929 000.3247 14.82534816177782
AAUSAT2
1 32788U 08021F 11222.70369697 .00001006 00000-0 13091-3 0 00540
2 32788 097.8446 285.7387 0015226 002.9670 357.1622 14.82727053177659
DO-64
1 32789U 08021G 11222.76225991 .00001657 00000-0 20876-3 0 00692
2 32789 097.8540 286.9071 0015102 001.1981 358.9235 14.83258019177670
CO-66
1 32791U 08021J 11223.72048014 .00000244 00000-0 37200-4 0 568
2 32791 097.8468 286.4166 0015833 359.2236 000.8957 14.82206067177739
RS-30
1 32953U 08025A 11223.76523463 .00000010 00000-0 00000 0 0 9846
2 32953 082.5042 128.1802 0017700 268.1159 091.7893 12.43014533145995
TACSAT-3
1 35001U 09028A 11222.89379909 .00015647 00000-0 26808-3 0 06661
2 35001 040.4530 200.1337 0022376 260.3300 099.4989 15.50526577125578
PHARMSAT
1 35002U 09028B 11223.97570043 .00011488 00000-0 20248-3 0 6205
2 35002 040.4684 191.6639 0024401 275.1180 084.6834 15.49867079125768
HAWKSAT1
1 35003U 09028C 11222.88020401 .00100219 00000-0 68258-3 0 07174
2 35003 040.4518 159.1643 0018337 287.6357 072.2255 15.73521340126029
CP6
1 35004U 09028D 11223.93663176 .00242589 27381-4 80629-3 0 7206
2 35004 040.4479 138.3817 0017270 280.3537 079.5212 15.89205802126339
METEOR-M
1 35865U 09049A 11223.74459866 .00000176 00000-0 10000-3 0 6295
2 35865 098.7019 278.1413 0001661 227.2097 132.8907 14.21840971 98488
RS-38
1 35869U 09049E 11223.73779015 .00000177 00000-0 10000-3 0 6177
2 35869 098.6987 278.1668 0003702 230.3462 129.7356 14.22018414 98490
ARISSAT1
1 37772U 98067CK 11223.93587557 .00023451 00000-0 27963-3 0 237
2 37772 051.6396 240.1260 0013301 071.4344 000.1165 15.60854875 1197
